Home > Weather > Northampton > Past weeks

Flag for United Kingdom Past Weather in Northampton, England, United Kingdom — Yesterday and Last 2 Weeks

Now
63 °F

Passing clouds.


Feels Like: 63 °F
Forecast: 51 / 57 °F
Wind: 17 mph from North

Location: Coventry Airport

Current Time: May 30, 2016 at 9:25:02 PM

Latest Report: May 30, 2016 at 7:50 PM


Visibility: N/A

Pressure: 30.07 "Hg

Humidity: 64%

Dew Point: 50 °F

Location of NorthamptonLocation

Past Weather in Northampton — Graph

°F

Northampton Temperature Yesterday

Maximum temperature yesterday: 64 °F (at 5:50 PM)
Minimum temperature yesterday: 52 °F (at 8:50 AM)
Average temperature yesterday: 59 °F

High & Low Weather Summary for the Past Weeks

 TemperatureHumidityPressure
High66 °F (May 27, 3:20 PM)94% (May 18, 10:20 AM)30.21 "Hg (May 18, 10:20 AM)
Low46 °F (May 17, 7:20 AM)40% (May 16, 5:20 PM)29.56 "Hg (May 18, 12:50 PM)
Average57 °F69%29.96 "Hg
* Reported May 16 9:50 AM — May 30 7:50 PM, Northampton, Weather by CustomWeather, © 2016

Note: Actual official high and low records may vary slightly from our data, if they occured in-between our weather recording intervals... More about our weather records

Advertising

Northampton Weather History for the Previous 24 Hours

Scroll right to see more
 ConditionsComfort  
Time TempWeatherWind HumidityBarometerVisibility
7:50 PM
Mon, May 30
63 °FPassing clouds.17 mph64%30.07 "HgN/A
7:20 PM63 °FPassing clouds.16 mph64%30.04 "HgN/A
6:50 PM64 °FPassing clouds.18 mph60%30.04 "HgN/A
6:20 PM64 °FScattered clouds.15 mph60%30.04 "HgN/A
5:50 PM64 °FScattered clouds.14 mph60%30.07 "HgN/A
5:20 PM64 °FScattered clouds.16 mph60%30.07 "HgN/A
4:50 PM64 °FPartly sunny.13 mph60%30.07 "HgN/A
4:20 PM64 °FPartly sunny.16 mph60%30.07 "HgN/A
3:50 PM64 °FPartly sunny.16 mph60%30.07 "HgN/A
3:20 PM64 °FPartly sunny.16 mph64%30.07 "HgN/A
2:50 PM63 °FPartly sunny.13 mph64%30.07 "HgN/A
2:20 PM61 °FPartly sunny.12 mph68%30.07 "HgN/A
1:50 PM61 °FPartly sunny.12 mph68%30.07 "HgN/A
1:20 PM59 °FPartly sunny.12 mph72%30.07 "HgN/A
12:50 PM57 °FPartly sunny.12 mph77%30.07 "HgN/A
12:20 PM57 °FPartly sunny.14 mph77%30.07 "Hg5 mi
11:50 AM57 °FPartly sunny.13 mph77%30.07 "Hg5 mi
11:20 AM55 °FPartly sunny.10 mph82%30.07 "Hg4 mi
10:50 AM54 °FPartly sunny.10 mph82%30.07 "Hg4 mi
10:20 AM54 °FPartly sunny.12 mph82%30.07 "Hg4 mi
9:50 AM54 °FPartly sunny.14 mph82%30.07 "Hg4 mi
8:50 AM54 °FPartly sunny.13 mph82%30.07 "Hg4 mi
Weather by CustomWeather, © 2016

See weather overviewHow to use our weather pages